weather.gov     
National Weather Service

Regional Weather Roundup
NWS Homepage
This page is being discontinued on March 12, 2014.
The same data is available at this site. Please update your bookmarks.
Thank you, and we apologize for the inconvenience.
Please send an email to SR-SRH.Webmaster@noaa.gov with any concerns.


Current Version
Previous Version:    01  02  03  04  05  06  07  08  09  10  11  12  13  14  15  16  17  18  19  20  21  22  23  24  25  26  27  28  29  30  
   31  32  33  34  35  36  37  38  39  40  41  42  43  44  45  46  47  48  49  50  51  52  53  54  
[Printable]
803
ASUS42 KMHX 240510
RWRMHX
WEATHER ROUNDUP FOR EASTERN NORTH CAROLINA
NATIONAL WEATHER SERVICE NEWPORT/MOREHEAD CITY NC
1200 AM EST MON NOV 24 2014

NOTE: "FAIR" INDICATES FEW OR NO CLOUDS BELOW 12,000 FEET
WITH NO SIGNIFICANT WEATHER AND/OR OBSTRUCTIONS TO VISIBILITY

NCZ015>017-031-032-045>047-102-103-240600-
NORTH COAST

CITY           SKY/WX    TMP DP  RH WIND       PRES   REMARKS
EDENTON        LGT RAIN  64  64  97 S14       29.86F
ELIZABETH CITY CLOUDY    66  61  84 S13       29.88F
KITTY HAWK     LGT RAIN  66  62  89 SE13G24   29.89F
MANTEO         LGT RAIN  64  61  91 S18G26    29.90F

$$

NCZ045>047-081-094-103-104-240600-
CENTRAL COAST

CITY           SKY/WX    TMP DP  RH WIND       PRES   REMARKS
FRISCO         CLOUDY    68  64  87 S28G40    29.90F
SWANQUARTER      N/A     63 N/A N/A S12G24    29.82F

$$

NCZ095-097-098-100-101-240600-
SOUTHERN COAST

CITY           SKY/WX    TMP DP  RH WIND       PRES   REMARKS
BEAUFORT       LGT RAIN  67  65  93 S24G31    29.85F
CEDAR ISLAND     N/A     68 N/A N/A SE16G33   29.88F
JACKSONVILLE   RAIN      68  65  90 S20G35    29.85F FOG
PINEY ISLAND   CLOUDY    71  66  84 S20G30    29.86F
WILMINGTON     HVY RAIN  67  65  93 W12       29.87R VSB 3/4


$$

NCZ011>013-027>030-043-044-078>080-089-090>093-098-240600-
COASTAL PLAIN

CITY           SKY/WX    TMP DP  RH WIND       PRES   REMARKS
AHOSKIE        RAIN      64  62  94 SE14G20   29.81F
CLINTON        LGT RAIN  67  67 100 SE5       29.79F
ELIZABETHTOWN  LGT RAIN  67  66  96 SE5       29.77F
GOLDSBORO      LGT RAIN  68  66  94 S12G30    29.80S
GREENVILLE     LGT RAIN  64  64 100 S10G17    29.82F
HAVELOCK       TSTM      69  66  90 S23G30    29.87F FOG
KENANSVILLE    LGT RAIN  67  66  96 SE7       29.85R
KINSTON        RAIN      67  66  96 S16G22    29.82F
NEW BERN       HVY RAIN  70  66  87 S18G26    29.88S FOG
RICHLANDS      CLOUDY    66  64  94 SE18G28   29.85F THUNDER
ROCKY MOUNT    HVY RAIN  65  65 100 S14G20    29.82R FOG
WASHINGTON     CLOUDY    65  64  94 SE14G21   29.81F
WHITEVILLE     CLOUDY    66  64  91 CALM      29.77F

$$

AMZ130-135-150-152-154-156-158-170-250-252-270-ANZ085-086-088-633-658-670-240600-
MARINE OBSERVATIONS

STATION/POSITION TIME  TEMP    WIND        PRES    WAVE   SWELL
                       AIR SEA DIR/SP/G            HT/PER HT/PER
                 (UTC) (F)     (DEG/KT/KT) (MB)    (FT/S) (FT/S)
CHESAPEAKE LIGHT 0400   63     160/ 30/ 32 1012.2
64 E VA BEACH    0500   67 62  160/ 21/ 27 1012.8    9/ 7
DUCK             0500   63 55  150/ 25/ 29 1011.1
2 E DUCK         0500      57                N/A     5/ 7
10 NE DUCK       0500      58                N/A     7/ 7
OREGON INLET     0500   66 52  140/ 14/ 21 1012.4
13E OREGON INLT  0500      65                N/A    10/ 8   2/11
HATTERAS CG      0500   70 58  160/ 22/ 33 1012.6
DIAMOND BUOY     0500   73     150/ 29/ 37 1011.7   11/ 8
17 S OCRACOKE    NOT AVBL
CAPE LOOKOUT     0400   66     150/ 24/ 26 1011.9
BEAUFORT LAB     0500   66 55  160/ 20/ 26 1009.6
30 SE NEW RIVER  0500   71 69  150/ 31/ 37 1009.5   14/ 9
5 SE WRIGHTSVLE  0400   62 60  150/ 19/ 23 1010.2
225 S CAPE HAT   0445   73 73  160/ 31/ 37 1015.8   10/ 7
41 SE CHARLESTON 0500   76 75  220/ 23/ 29 1009.3   11/10   8/10

$$




U.S. Dept. of Commerce
NOAA National Weather Service
1325 East West Highway
Silver Spring, MD 20910
E-mail: w-nws.webmaster@noaa.gov
Page last modified: May 16, 2007
NATIONAL WEATHER SERVICE: for Safety, for Work, for Fun - FOR LIFE